When you browse on this site, cookies collect data to enhance your experience and personalize the content and advertising you see.
Visit our Privacy Policy to learn more. By continuing to use the site, you agree to this use of cookies and data.
  • In Austria
  • List of Countries
  • For 7 days
  • Water Temperature
  • Weather Map
  • News
  • Weather Widgets
  • user-avatar
    Login

    Hourly Weather Mahdia

    Today, 24 January, Friday

    Time Temperature Precipitation Wind Pressure Humidity
    00:00 +13°C° 0 mm 6 mps 768 mmHg 87%
    01:00 +13°C° 0 mm 6 mps 768 mmHg 87%
    02:00 +13°C° 0 mm 6 mps 768 mmHg 88%
    03:00 +13°C° 0 mm 5 mps 767 mmHg 88%
    04:00 +13°C° 0 mm 5 mps 767 mmHg 89%
    05:00 +13°C° 0 mm 5 mps 767 mmHg 89%
    06:00 +13°C° 0 mm 5 mps 767 mmHg 89%
    07:00 +13°C° 0 mm 5 mps 767 mmHg 89%
    08:00 +14°C° 0 mm 6 mps 767 mmHg 81%
    09:00 +16°C° 0 mm 6 mps 768 mmHg 74%
    10:00 +17°C° 0 mm 6 mps 768 mmHg 67%
    11:00 +19°C° 0 mm 6 mps 767 mmHg 58%
    12:00 +20°C° 0 mm 6 mps 767 mmHg 50%
    13:00 +21°C° 0 mm 6 mps 767 mmHg 41%
    14:00 +21°C° 0 mm 5 mps 766 mmHg 41%
    15:00 +21°C° 0 mm 5 mps 766 mmHg 42%
    16:00 +21°C° 0 mm 4 mps 766 mmHg 42%
    17:00 +20°C° 0 mm 4 mps 766 mmHg 48%
    18:00 +18°C° 0 mm 4 mps 766 mmHg 54%
    19:00 +15°C° 0 mm 4 mps 766 mmHg 60%
    20:00 +15°C° 0 mm 4 mps 767 mmHg 61%
    21:00 +16°C° 0 mm 3 mps 767 mmHg 62%
    22:00 +14°C° 0 mm 3 mps 767 mmHg 63%
    23:00 +15°C° 0 mm 2 mps 767 mmHg 63%

    Tomorrow, 25 January, Saturday

    Time Temperature Precipitation Wind Pressure Humidity
    00:00 +15°C° 0 mm 2 mps 767 mmHg 63%
    01:00 +14°C° 0 mm 1 mps 767 mmHg 63%
    02:00 +14°C° 0 mm 1 mps 767 mmHg 63%
    03:00 +13°C° 0 mm 1 mps 766 mmHg 62%
    04:00 +13°C° 0 mm 1 mps 766 mmHg 62%
    05:00 +13°C° 0 mm 2 mps 766 mmHg 67%
    06:00 +13°C° 0 mm 2 mps 767 mmHg 71%
    07:00 +13°C° 0 mm 2 mps 767 mmHg 75%
    08:00 +14°C° 0 mm 2 mps 767 mmHg 72%
    09:00 +16°C° 0 mm 2 mps 767 mmHg 69%
    10:00 +17°C° 0 mm 2 mps 768 mmHg 65%
    11:00 +19°C° 0 mm 1 mps 767 mmHg 61%
    12:00 +19°C° 0 mm 1 mps 767 mmHg 57%
    13:00 +20°C° 0 mm 1 mps 766 mmHg 53%
    14:00 +20°C° 0 mm 1 mps 766 mmHg 53%
    15:00 +20°C° 0 mm 1 mps 766 mmHg 54%
    16:00 +20°C° 0 mm 1 mps 765 mmHg 54%
    17:00 +19°C° 0 mm 1 mps 765 mmHg 61%
    18:00 +16°C° 0 mm 1 mps 765 mmHg 68%
    19:00 +15°C° 0 mm 1 mps 765 mmHg 75%
    20:00 +15°C° 0 mm 1 mps 766 mmHg 70%
    21:00 +16°C° 0 mm 1 mps 766 mmHg 66%
    22:00 +16°C° 0 mm 2 mps 766 mmHg 61%
    23:00 +16°C° 0 mm 2 mps 766 mmHg 55%

    Day after tomorrow, 26 January, Sunday

    Time Temperature Precipitation Wind Pressure Humidity
    00:00 +14°C° 0 mm 3 mps 766 mmHg 48%
    01:00 +14°C° 0 mm 4 mps 766 mmHg 42%
    02:00 +14°C° 0 mm 4 mps 765 mmHg 42%
    03:00 +14°C° 0 mm 5 mps 765 mmHg 43%
    04:00 +14°C° 0 mm 6 mps 765 mmHg 43%
    05:00 +13°C° 0 mm 5 mps 765 mmHg 44%
    06:00 +13°C° 0 mm 5 mps 765 mmHg 46%
    07:00 +13°C° 0 mm 4 mps 765 mmHg 48%
    08:00 +14°C° 0 mm 4 mps 765 mmHg 47%
    09:00 +16°C° 0 mm 3 mps 765 mmHg 45%
    10:00 +18°C° 0 mm 3 mps 765 mmHg 44%
    11:00 +18°C° 0.1 mm 3 mps 765 mmHg 49%
    12:00 +18°C° 0.1 mm 4 mps 765 mmHg 53%
    13:00 +17°C° 0.1 mm 4 mps 764 mmHg 58%
    14:00 +15°C° 0.5 mm 4 mps 765 mmHg 64%
    15:00 +14°C° 0.5 mm 4 mps 765 mmHg 71%
    16:00 +13°C° 0.5 mm 3 mps 765 mmHg 77%
    17:00 +13°C° 0.2 mm 3 mps 765 mmHg 78%
    18:00 +13°C° 0.2 mm 3 mps 765 mmHg 79%
    19:00 +13°C° 0.2 mm 3 mps 765 mmHg 81%
    20:00 +12°C° 0 mm 3 mps 765 mmHg 81%
    21:00 +12°C° 0 mm 4 mps 766 mmHg 80%
    22:00 +12°C° 0 mm 4 mps 766 mmHg 80%
    23:00 +11°C° 0 mm 4 mps 766 mmHg 80%

    27 January, Monday

    Time Temperature Precipitation Wind Pressure Humidity
    00:00 +11°C° 0 mm 4 mps 766 mmHg 80%
    01:00 +10°C° 0 mm 5 mps 766 mmHg 81%
    02:00 +10°C° 0 mm 5 mps 766 mmHg 79%
    03:00 +10°C° 0 mm 6 mps 765 mmHg 78%
    04:00 +9°C° 0 mm 7 mps 765 mmHg 77%
    05:00 +9°C° 0 mm 7 mps 766 mmHg 79%
    06:00 +9°C° 0 mm 7 mps 766 mmHg 81%
    07:00 +9°C° 0 mm 7 mps 766 mmHg 83%
    08:00 +10°C° 0 mm 7 mps 767 mmHg 78%
    09:00 +12°C° 0 mm 7 mps 767 mmHg 74%
    10:00 +14°C° 0 mm 7 mps 768 mmHg 69%
    11:00 +15°C° 0 mm 7 mps 767 mmHg 66%
    12:00 +16°C° 0 mm 7 mps 767 mmHg 62%
    13:00 +17°C° 0 mm 6 mps 767 mmHg 59%
    14:00 +17°C° 0 mm 6 mps 767 mmHg 58%
    15:00 +17°C° 0 mm 5 mps 767 mmHg 57%
    16:00 +18°C° 0 mm 4 mps 767 mmHg 56%
    17:00 +17°C° 0 mm 4 mps 767 mmHg 61%
    18:00 +16°C° 0 mm 3 mps 767 mmHg 66%
    19:00 +15°C° 0 mm 2 mps 768 mmHg 71%
    20:00 +13°C° 0 mm 3 mps 768 mmHg 75%
    21:00 +13°C° 0 mm 3 mps 768 mmHg 78%
    22:00 +13°C° 0 mm 3 mps 769 mmHg 82%
    23:00 +12°C° 0 mm 3 mps 769 mmHg 84%

    28 January, Tuesday

    Time Temperature Precipitation Wind Pressure Humidity
    00:00 +13°C° 0 mm 2 mps 769 mmHg 86%
    01:00 +12°C° 0 mm 1 mps 769 mmHg 89%
    02:00 +12°C° 0 mm 2 mps 768 mmHg 88%
    03:00 +12°C° 0 mm 2 mps 768 mmHg 87%
    04:00 +11°C° 0 mm 3 mps 768 mmHg 86%
    05:00 +11°C° 0 mm 3 mps 768 mmHg 84%
    06:00 +11°C° 0 mm 3 mps 768 mmHg 82%
    07:00 +11°C° 0 mm 4 mps 768 mmHg 80%
    08:00 +12°C° 0 mm 4 mps 768 mmHg 72%
    09:00 +14°C° 0 mm 5 mps 768 mmHg 63%
    10:00 +15°C° 0 mm 6 mps 768 mmHg 55%
    11:00 +16°C° 0 mm 6 mps 768 mmHg 51%
    12:00 +19°C° 0 mm 6 mps 768 mmHg 46%
    13:00 +20°C° 0 mm 6 mps 767 mmHg 41%
    14:00 +20°C° 0 mm 6 mps 767 mmHg 41%
    15:00 +20°C° 0 mm 6 mps 766 mmHg 40%
    16:00 +20°C° 0 mm 6 mps 766 mmHg 40%
    17:00 +17°C° 0 mm 6 mps 766 mmHg 45%
    18:00 +16°C° 0 mm 5 mps 766 mmHg 50%
    19:00 +14°C° 0 mm 5 mps 766 mmHg 55%
    20:00 +14°C° 0 mm 5 mps 767 mmHg 57%
    21:00 +13°C° 0 mm 5 mps 767 mmHg 58%
    22:00 +13°C° 0 mm 6 mps 767 mmHg 59%
    23:00 +12°C° 0 mm 5 mps 767 mmHg 61%

    29 January, Wednesday

    Time Temperature Precipitation Wind Pressure Humidity
    00:00 +12°C° 0 mm 5 mps 767 mmHg 62%
    01:00 +12°C° 0 mm 5 mps 767 mmHg 63%
    02:00 +10°C° 0 mm 5 mps 766 mmHg 64%
    03:00 +11°C° 0 mm 4 mps 766 mmHg 65%
    04:00 +11°C° 0 mm 4 mps 766 mmHg 66%
    05:00 +10°C° 0 mm 3 mps 766 mmHg 66%
    06:00 +10°C° 0 mm 3 mps 766 mmHg 66%
    07:00 +10°C° 0 mm 3 mps 766 mmHg 65%
    08:00 +12°C° 0 mm 3 mps 766 mmHg 59%
    09:00 +14°C° 0 mm 2 mps 767 mmHg 52%
    10:00 +16°C° 0 mm 2 mps 767 mmHg 45%
    11:00 +18°C° 0 mm 2 mps 767 mmHg 41%
    12:00 +19°C° 0 mm 2 mps 766 mmHg 37%
    13:00 +21°C° 0 mm 1 mps 766 mmHg 33%
    14:00 +21°C° 0 mm 1 mps 766 mmHg 34%
    15:00 +20°C° 0 mm 2 mps 766 mmHg 35%
    16:00 +20°C° 0 mm 2 mps 766 mmHg 35%
    17:00 +19°C° 0 mm 2 mps 766 mmHg 41%
    18:00 +17°C° 0 mm 2 mps 766 mmHg 47%
    19:00 +16°C° 0 mm 2 mps 766 mmHg 53%
    20:00 +15°C° 0 mm 2 mps 767 mmHg 53%
    21:00 +15°C° 0 mm 2 mps 767 mmHg 53%
    22:00 +15°C° 0 mm 2 mps 767 mmHg 52%
    23:00 +15°C° 0 mm 2 mps 767 mmHg 51%
    Show more